Proctor, AR

8:21 PM CST on December 03, 2016 (GMT -0600)
West Memphis Municipal

Weather History for KAWM - January, 2014

Change the Weather History Date:

Friday, January 31, 2014

  Actual Average Record
Temperature  
Mean Temperature 47 °F -  
Max Temperature 55 °F 51 °F 69 °F (2016)
Min Temperature 39 °F 31 °F 9 °F (1965)
Degree Days  
Heating Degree Days 18    
Moisture  
Dew Point 33 °F    
Average Humidity 59    
Maximum Humidity 89    
Minimum Humidity 29    
Precipitation  
Precipitation 0.00 in - - ()
Sea Level Pressure  
Sea Level Pressure 30.02 in    
Wind  
Wind Speed 10 mph (South)    
Max Wind Speed 18 mph    
Max Gust Speed 26 mph    
Visibility 10 miles    
Events      
Averages and records for this station are not official NWS values.
T = Trace of Precipitation, MM = Missing Value Source: NWS Daily Summary

Daily Weather History Graph

Daily Weather History Graph

Search for Another Location

Airport or City:

Trip Planner

Search our weather history database for the weather conditions in past years. The results will help you decide how hot, cold, wet, or windy it might be!

Date:

Astronomy

Jan. 31, 2014 Rise Set
Actual Time 7:00 AM CST 5:28 PM CST
Civil Twilight 6:34 AM CST 5:55 PM CST
Nautical Twilight 6:03 AM CST 6:25 PM CST
Astronomical Twilight 5:33 AM CST 6:55 PM CST
Moon 7:14 AM CST (1/31) 6:47 PM CST (1/31)
Length of Visible Light 11h 21m
Length of Day
10h 27m
New Moon, 1% of the Moon is Illuminated
Jan 31
New Moon
Feb 6
First Quarter
Feb 14
Full
Feb 22
Last Quarter
Mar 1
New

Hourly Weather History & Observations

Time (CST) Temp. Windchill Dew Point Humidity Pressure Visibility Wind Dir Wind Speed Gust Speed Precip Events Conditions
12:53 AM 41.0 °F 34.3 °F 10.9 °F 29% 30.05 in 10.0 mi SSW 11.5 mph - N/A   Overcast
1:53 AM 39.9 °F 33.4 °F 12.9 °F 33% 30.04 in 10.0 mi South 10.4 mph - N/A   Overcast
2:53 AM 39.9 °F 34.5 °F 15.1 °F 36% 30.05 in 10.0 mi South 8.1 mph - N/A   Overcast
3:53 AM 39.0 °F 33.4 °F 16.0 °F 39% 30.05 in 10.0 mi South 8.1 mph - N/A   Overcast
4:53 AM 39.9 °F 33.9 °F 18.0 °F 41% 30.04 in 10.0 mi South 9.2 mph - N/A   Overcast
5:53 AM 41.0 °F 34.7 °F 21.0 °F 45% 30.05 in 10.0 mi South 10.4 mph - N/A   Overcast
6:45 AM 42.8 °F 38.0 °F 24.8 °F 49% 30.05 in 10.0 mi South 8.1 mph - N/A   Overcast
6:53 AM 42.1 °F 36.6 °F 24.1 °F 49% 30.06 in 10.0 mi South 9.2 mph - N/A   Overcast
7:53 AM 42.1 °F 36.1 °F 32.0 °F 67% 30.06 in 10.0 mi South 10.4 mph - N/A   Overcast
8:53 AM 42.1 °F 37.1 °F 32.0 °F 67% 30.08 in 10.0 mi South 8.1 mph - N/A   Overcast
9:53 AM 39.0 °F 32.3 °F 36.0 °F 89% 30.10 in 6.0 mi South 10.4 mph - 0.00 in   Overcast
10:50 AM 41.0 °F 35.2 °F 37.4 °F 87% 30.08 in 7.0 mi SSE 9.2 mph - N/A   Overcast
10:53 AM 41.0 °F 35.2 °F 37.0 °F 86% 30.08 in 8.0 mi SSE 9.2 mph - N/A   Overcast
11:53 AM 46.9 °F - 35.1 °F 63% 30.04 in 10.0 mi South 13.8 mph - N/A   Overcast
12:53 PM 48.9 °F - 37.9 °F 66% 30.01 in 10.0 mi South 17.3 mph 24.2 mph N/A   Overcast
1:53 PM 52.0 °F - 39.0 °F 61% 29.98 in 10.0 mi South 15.0 mph 21.9 mph N/A   Overcast
2:53 PM 53.1 °F - 39.9 °F 61% 29.96 in 10.0 mi South 11.5 mph - N/A   Overcast
3:53 PM 54.0 °F - 41.0 °F 62% 29.95 in 10.0 mi South 6.9 mph - N/A   Overcast
4:53 PM 54.0 °F - 42.1 °F 64% 29.96 in 10.0 mi South 9.2 mph - N/A   Overcast
5:53 PM 55.0 °F - 43.0 °F 64% 29.98 in 10.0 mi SSW 4.6 mph - N/A   Overcast
6:53 PM 53.1 °F - 42.1 °F 66% 29.97 in 10.0 mi South 9.2 mph - N/A   Overcast
7:53 PM 53.1 °F - 42.1 °F 66% 29.96 in 10.0 mi South 8.1 mph - N/A   Overcast
8:53 PM 54.0 °F - 42.1 °F 64% 29.96 in 10.0 mi SSE 11.5 mph - N/A   Overcast
9:53 PM 55.0 °F - 42.1 °F 62% 29.95 in 10.0 mi South 16.1 mph - N/A   Overcast
10:53 PM 55.9 °F - 42.1 °F 60% 29.95 in 10.0 mi South 16.1 mph - N/A   Overcast
11:53 PM 55.9 °F - 42.1 °F 60% 29.95 in 10.0 mi South 18.4 mph 26.5 mph N/A   Overcast